CW1706 Cambridge MD US current weather conditions

sailwx.info

Wind from 017 at 0 knots gusting 5

Air temperature 18.3° C
Dewpoint 17.0° C

Last reported at 2019-Aug-26 10:03 UTC.
Time now 2019-Aug-26 10:27 UTC

Location: N 38°33' W 076°01'.
View on Google Maps.

See reports from other nearby stations

  
Tides and Currents Weather Stations Pressure Air Temp Water Temp Dewpoint Dewpoint Depression Visibility Wind Speed Wind Dir Waves Ship Positions
date/time (UTC)wind fromknots sea level pressurealtimeterstation pressurevisibilityair tempwater tempwave heightnotes
2019-Aug-26 10:03 017 0 gusting 5 18.3
2019-Aug-26 09:53 058 0 gusting 9 18.3
2019-Aug-26 09:43 043 4 gusting 9 18.3
2019-Aug-26 09:33 034 0 gusting 10 18.3
2019-Aug-26 09:23 061 3 gusting 9 18.3
2019-Aug-26 09:13 055 4 gusting 8 18.3
2019-Aug-26 09:03 024 2 gusting 10 18.3
2019-Aug-26 08:53 061 4 gusting 8 18.3
2019-Aug-26 08:43 017 3 gusting 9 18.3
2019-Aug-26 08:33 058 2 gusting 9 18.3
2019-Aug-26 08:23 045 2 gusting 10 18.3
2019-Aug-26 08:13 056 3 gusting 8 17.8
2019-Aug-26 08:03 050 1 gusting 11 17.8
2019-Aug-26 07:53 105 1 gusting 8 17.8
2019-Aug-26 07:43 071 1 gusting 8 17.8
2019-Aug-26 07:33 048 1 gusting 7 17.8
2019-Aug-26 07:23 069 0 gusting 5 17.8
2019-Aug-26 07:13 062 0 gusting 7 18.3
2019-Aug-26 07:03 082 1 gusting 5 18.3
2019-Aug-26 06:53 061 0 gusting 5 18.3
2019-Aug-26 06:43 044 2 gusting 6 18.3
2019-Aug-26 06:33 055 0 gusting 8 18.3
2019-Aug-26 06:23 034 1 gusting 7 18.3
2019-Aug-26 06:13 043 1 gusting 6 17.8
2019-Aug-26 06:03 086 3 gusting 8 17.8
2019-Aug-26 05:53 040 2 gusting 11 17.8
2019-Aug-26 05:43 056 2 gusting 5 18.3
2019-Aug-26 05:33 048 2 gusting 9 18.3
2019-Aug-26 05:23 071 0 gusting 7 18.3
2019-Aug-26 05:13 075 1 gusting 6 18.3
2019-Aug-26 05:03 095 1 gusting 6 18.3
2019-Aug-26 04:53 059 1 gusting 7 18.3
2019-Aug-26 04:43 060 3 gusting 5 18.3
2019-Aug-26 04:33 070 3 gusting 6 18.3
2019-Aug-26 04:23 061 2 gusting 6 18.3
2019-Aug-26 04:13 040 2 gusting 6 18.3
2019-Aug-26 04:03 051 2 gusting 5 18.3
2019-Aug-26 03:53 069 1 gusting 7 18.3
2019-Aug-26 03:43 049 1 gusting 7 18.3
2019-Aug-26 03:33 055 1 gusting 4 18.3
2019-Aug-26 03:23 067 1 gusting 5 18.3
2019-Aug-26 03:13 069 0 gusting 6 18.9
2019-Aug-26 03:03 059 1 gusting 5 18.9
2019-Aug-26 02:53 076 2 gusting 6 18.9
2019-Aug-26 02:43 067 0 gusting 4 18.9
2019-Aug-26 02:33 065 2 gusting 5 18.9
2019-Aug-26 02:23 055 1 gusting 4 18.9
2019-Aug-26 02:13 060 2 gusting 4 18.9
2019-Aug-26 02:03 076 0 gusting 3 18.9
2019-Aug-26 01:53 075 1 gusting 5 18.9
2019-Aug-26 01:43 082 1 gusting 5 19.4
2019-Aug-26 01:33 065 2 gusting 6 19.4
2019-Aug-26 01:23 056 1 gusting 6 19.4
2019-Aug-26 01:13 043 2 gusting 5 19.4
2019-Aug-26 01:03 085 1 gusting 4 19.4
2019-Aug-26 00:53 064 2 gusting 6 20.0
2019-Aug-26 00:43 073 2 gusting 6 20.0
2019-Aug-26 00:33 057 0 gusting 6 20.0
2019-Aug-26 00:23 071 3 gusting 6 20.0
2019-Aug-26 00:13 099 1 gusting 6 20.0
2019-Aug-26 00:03 061 2 gusting 7 20.6
2019-Aug-25 23:53 082 2 gusting 7 20.6
2019-Aug-25 23:43 042 2 gusting 6 21.1
2019-Aug-25 23:33 074 1 gusting 6 21.1
2019-Aug-25 23:23 069 2 gusting 7 21.1
2019-Aug-25 23:13 082 3 gusting 7 21.7
2019-Aug-25 23:03 067 2 gusting 8 22.2
2019-Aug-25 22:53 105 5 gusting 13 22.2
2019-Aug-25 22:43 055 3 gusting 9 22.8
2019-Aug-25 22:33 084 3 gusting 13 22.8
2019-Aug-25 22:23 081 5 gusting 10 22.8
2019-Aug-25 22:13 072 3 gusting 9 23.3
2019-Aug-25 22:03 051 5 gusting 11 23.3
2019-Aug-25 21:53 055 4 gusting 9 23.3
2019-Aug-25 21:43 057 3 gusting 9 23.3
2019-Aug-25 21:33 057 5 gusting 13 23.3
2019-Aug-25 21:23 061 5 gusting 11 23.3
2019-Aug-25 21:13 071 3 gusting 11 23.3
2019-Aug-25 21:03 150 2 gusting 10 23.3
2019-Aug-25 20:53 061 3 gusting 7 23.3
2019-Aug-25 20:43 116 3 gusting 13 23.9
2019-Aug-25 20:33 091 4 gusting 12 23.9
2019-Aug-25 20:23 066 4 gusting 13 23.9
2019-Aug-25 20:13 090 2 gusting 12 24.4
2019-Aug-25 20:03 061 6 gusting 11 24.4
2019-Aug-25 19:53 086 4 gusting 11 24.4
2019-Aug-25 19:43 128 4 gusting 9 24.4
2019-Aug-25 19:33 016 5 gusting 10 24.4
2019-Aug-25 19:23 088 6 gusting 13 25.0
2019-Aug-25 19:13 073 4 gusting 11 25.6
2019-Aug-25 19:03 080 3 gusting 11 25.0
2019-Aug-25 18:53 052 5 gusting 9 24.4
2019-Aug-25 18:43 053 4 gusting 12 24.4
2019-Aug-25 18:33 090 3 gusting 8 25.0
2019-Aug-25 18:23 085 4 gusting 8 25.6
2019-Aug-25 18:13 113 6 gusting 11 24.4
2019-Aug-25 18:03 174 5 gusting 11 25.0
2019-Aug-25 17:53 066 4 gusting 13 24.4
2019-Aug-25 17:43 040 6 gusting 13 24.4
2019-Aug-25 17:33 158 4 gusting 10 24.4
2019-Aug-25 17:23 052 5 gusting 11 24.4
2019-Aug-25 17:13 115 6 gusting 12 24.4
2019-Aug-25 17:03 110 4 gusting 8 23.9
2019-Aug-25 16:53 038 4 gusting 13 23.3
2019-Aug-25 16:43 092 4 gusting 13 23.3
2019-Aug-25 16:33 019 3 gusting 10 23.9
2019-Aug-25 16:23 092 5 gusting 13 23.9
2019-Aug-25 16:13 069 6 gusting 13 23.3
2019-Aug-25 16:03 066 5 gusting 9 23.3
2019-Aug-25 15:53 086 3 gusting 11 22.8
2019-Aug-25 15:43 020 3 gusting 12 22.2
2019-Aug-25 15:33 044 3 gusting 8 21.7
2019-Aug-25 15:23 070 5 gusting 12 21.7
2019-Aug-25 15:13 036 4 gusting 9 21.1
2019-Aug-25 15:03 055 6 gusting 10 20.6
2019-Aug-25 14:53 053 1 gusting 9 20.0
2019-Aug-25 14:43 054 2 gusting 5 19.4
2019-Aug-25 14:33 058 2 gusting 10 19.4
2019-Aug-25 14:23 036 3 gusting 10 18.9
2019-Aug-25 14:13 056 6 gusting 13 19.4
2019-Aug-25 14:03 051 4 gusting 13 19.4
2019-Aug-25 13:53 056 6 gusting 13 20.0
2019-Aug-25 13:43 076 6 gusting 19 20.0
2019-Aug-25 13:33 015 6 gusting 16 20.6
2019-Aug-25 13:23 066 4 gusting 12 20.6
2019-Aug-25 13:13 088 3 gusting 13 20.6
2019-Aug-25 13:03 070 1 gusting 10 20.0
2019-Aug-25 12:53 057 5 gusting 12 20.0
2019-Aug-25 12:43 040 4 gusting 11 20.0
2019-Aug-25 12:33 069 5 gusting 10 19.4
2019-Aug-25 12:23 029 4 gusting 12 19.4
2019-Aug-25 12:13 042 5 gusting 14 18.9
2019-Aug-25 12:03 059 1 gusting 10 18.9
2019-Aug-25 11:53 032 2 gusting 7 18.3
2019-Aug-25 11:43 044 3 gusting 7 18.3
2019-Aug-25 11:33 082 0 gusting 6 17.8
2019-Aug-25 11:23 030 1 gusting 6 17.8
2019-Aug-25 11:13 360 1 gusting 7 17.8
2019-Aug-25 11:03 059 17.2
2019-Aug-25 10:53 056 3 gusting 7 17.2
2019-Aug-25 10:43 026 17.2
2019-Aug-25 10:33 056 17.2
2019-Aug-25 10:23 050 0 gusting 4 17.2
2019-Aug-25 10:13 047 0 gusting 4 17.2
2019-Aug-25 10:03 078 17.2
2019-Aug-25 09:53 031 1 gusting 4 17.2
2019-Aug-25 09:43 049 16.7
2019-Aug-25 09:33 028 16.7
2019-Aug-25 09:23 031 0 gusting 2 16.7
2019-Aug-25 09:13 044 16.7
2019-Aug-25 09:03 077 16.7
2019-Aug-25 08:53 077 16.7
2019-Aug-25 08:43 077 16.7
2019-Aug-25 08:33 077 16.7
2019-Aug-25 08:23 077 16.7
2019-Aug-25 08:13 078 0 gusting 4 16.7
2019-Aug-25 08:03 071 16.7
2019-Aug-25 07:53 071 16.7
2019-Aug-25 07:43 071 16.7
2019-Aug-25 07:33 071 16.7
2019-Aug-25 07:23 071 16.7
2019-Aug-25 07:13 071 16.1
2019-Aug-25 07:03 071 16.1
2019-Aug-25 06:53 071 16.1
2019-Aug-25 06:43 071 16.1
2019-Aug-25 06:33 071 16.1
2019-Aug-25 06:23 071 16.1
2019-Aug-25 06:13 071 16.1
2019-Aug-25 06:03 071 16.7
2019-Aug-25 05:53 071 16.7
2019-Aug-25 05:43 071 17.2
2019-Aug-25 05:33 071 17.2
2019-Aug-25 05:23 071 17.2
2019-Aug-25 05:13 071 17.8
2019-Aug-25 05:03 071 0 gusting 2 17.8
2019-Aug-25 04:53 071 17.8
2019-Aug-25 04:43 071 17.8
2019-Aug-25 04:33 071 17.8
2019-Aug-25 04:23 076 0 gusting 2 17.2
2019-Aug-25 04:13 076 1 gusting 3 17.2
2019-Aug-25 04:03 076 0 gusting 3 16.7
2019-Aug-25 03:53 071 16.7
2019-Aug-25 03:43 071 16.7
2019-Aug-25 03:33 071 16.7
2019-Aug-25 03:23 071 17.2
2019-Aug-25 03:13 071 17.2
2019-Aug-25 03:03 071 17.2
2019-Aug-25 02:53 071 17.8
2019-Aug-25 02:43 071 17.8
2019-Aug-25 02:33 071 18.3
2019-Aug-25 02:23 071 18.3
2019-Aug-25 02:13 071 18.9
2019-Aug-25 02:03 071 18.9
2019-Aug-25 01:53 071 18.9
2019-Aug-25 01:43 071 0 gusting 1 19.4
2019-Aug-25 01:33 071 19.4
2019-Aug-25 01:23 071 0 gusting 2 19.4
2019-Aug-25 01:13 071 0 gusting 1 19.4
2019-Aug-25 01:03 071 0 gusting 2 20.0
2019-Aug-25 00:53 071 0 gusting 2 20.0
2019-Aug-25 00:43 071 20.0
2019-Aug-25 00:33 071 20.0
2019-Aug-25 00:23 071 20.6
2019-Aug-25 00:13 071 20.6
2019-Aug-25 00:03 071 0 gusting 2 20.6
2019-Aug-24 23:53 072 0 gusting 1 21.1
2019-Aug-24 23:43 072 0 gusting 1 21.1
2019-Aug-24 23:33 072 0 gusting 2 21.7
2019-Aug-24 23:23 073 0 gusting 2 21.7
2019-Aug-24 23:13 077 0 gusting 2 22.2
2019-Aug-24 23:03 115 1 gusting 5 22.2
2019-Aug-24 22:53 073 2 gusting 5 22.8
2019-Aug-24 22:43 078 1 gusting 5 22.8
2019-Aug-24 22:33 078 1 gusting 4 22.8
2019-Aug-24 22:23 075 0 gusting 6 23.3
2019-Aug-24 22:13 110 1 gusting 4 23.3
2019-Aug-24 22:03 059 1 gusting 5 23.3
2019-Aug-24 21:53 065 1 gusting 3 23.9
2019-Aug-24 21:43 089 1 gusting 3 23.9
2019-Aug-24 21:33 065 1 gusting 6 23.9
2019-Aug-24 21:23 091 2 gusting 9 24.4
2019-Aug-24 21:13 142 0 gusting 6 24.4
2019-Aug-24 21:03 118 2 gusting 5 23.9
2019-Aug-24 20:53 102 1 gusting 6 24.4
2019-Aug-24 20:43 132 2 gusting 6 24.4
2019-Aug-24 20:33 061 3 gusting 6 24.4
2019-Aug-24 20:23 071 3 gusting 8 24.4
2019-Aug-24 20:13 073 3 gusting 8 24.4
2019-Aug-24 20:03 086 1 gusting 8 24.4
2019-Aug-24 19:53 051 3 gusting 7 25.0
2019-Aug-24 19:43 153 1 gusting 8 25.6
2019-Aug-24 19:33 043 5 gusting 8 25.6
2019-Aug-24 19:23 057 2 gusting 6 25.6
2019-Aug-24 19:13 112 3 gusting 9 25.0
2019-Aug-24 19:03 070 1 gusting 10 25.0
2019-Aug-24 18:53 031 2 gusting 6 24.4
2019-Aug-24 18:43 055 3 gusting 5 24.4
2019-Aug-24 18:33 052 1 gusting 4 24.4
2019-Aug-24 18:23 071 4 gusting 7 24.4
2019-Aug-24 18:13 047 5 gusting 9 24.4
2019-Aug-24 18:03 094 2 gusting 6 23.9
2019-Aug-24 17:53 038 1 gusting 7 23.9
2019-Aug-24 17:43 094 1 gusting 7 24.4
2019-Aug-24 17:33 046 5 gusting 10 25.0
2019-Aug-24 17:23 056 1 gusting 7 25.0
2019-Aug-24 17:13 078 2 gusting 8 25.0
2019-Aug-24 17:03 040 2 gusting 7 25.0
2019-Aug-24 16:53 061 3 gusting 7 23.9
2019-Aug-24 16:43 047 1 gusting 6 23.9
2019-Aug-24 16:33 051 1 gusting 6 23.9
2019-Aug-24 16:23 040 3 gusting 7 24.4
2019-Aug-24 16:13 078 2 gusting 5 24.4
2019-Aug-24 16:03 061 2 gusting 6 23.9
2019-Aug-24 15:53 069 3 gusting 7 23.9
2019-Aug-24 15:43 059 3 gusting 7 23.9
2019-Aug-24 15:33 005 1 gusting 7 23.9
2019-Aug-24 15:23 061 3 gusting 6 23.9
2019-Aug-24 15:13 335 2 gusting 8 23.3
2019-Aug-24 15:03 355 3 gusting 6 23.3
2019-Aug-24 14:53 036 2 gusting 6 23.3
2019-Aug-24 14:43 103 1 gusting 6 22.8
2019-Aug-24 14:33 022 3 gusting 7 22.8
2019-Aug-24 14:23 042 2 gusting 7 22.2
2019-Aug-24 14:13 071 4 gusting 7 22.2
2019-Aug-24 14:03 073 4 gusting 7 21.7
2019-Aug-24 13:53 054 3 gusting 6 21.7
2019-Aug-24 13:43 051 3 gusting 8 21.1
2019-Aug-24 13:33 094 4 gusting 9 21.1
2019-Aug-24 13:23 030 2 gusting 8 20.6
2019-Aug-24 13:13 311 2 gusting 8 20.0
2019-Aug-24 13:03 032 5 gusting 9 20.0
2019-Aug-24 12:53 062 4 gusting 9 20.0
2019-Aug-24 12:43 030 3 gusting 8 19.4
2019-Aug-24 12:33 086 2 gusting 8 18.9
2019-Aug-24 12:23 089 4 gusting 7 18.3
2019-Aug-24 12:13 063 1 gusting 6 18.3
2019-Aug-24 12:03 076 1 gusting 7 18.3
2019-Aug-24 11:53 344 1 gusting 10 18.3
2019-Aug-24 11:43 005 1 gusting 8 18.3
2019-Aug-24 11:33 063 4 gusting 8 18.3
2019-Aug-24 11:23 355 1 gusting 7 18.3
2019-Aug-24 11:13 048 1 gusting 6 18.3
2019-Aug-24 11:03 061 2 gusting 8 18.3
2019-Aug-24 10:53 026 3 gusting 9 18.3
2019-Aug-24 10:43 102 2 gusting 8 18.3
2019-Aug-24 10:33 067 3 gusting 8 18.3